Location: ????????
(55.6333°N, 37.7000°E)
Time: 02:29:36
(UTC+00:00)

Ariane Rocket - Pass Details

Date: 19 May 2025
Orbit: 756 x 764 km, 98.5° (Epoch: 13 June)

Event Time Altitude Azimuth Distance (km) Brightness Sun altitude
Exits shadow 19:36:50 - 194° (SSW) 2,561 5.3 -11.0°
Reaches altitude 10° 19:37:34 10° 197° (SSW) 2,293 5.0 -11.0°
Maximum altitude 19:42:13 36° 264° (W) 1,193 4.2 -11.3°
Drops below altitude 10° 19:46:55 10° 331° (NNW) 2,313 7.0 -11.6°
Sets 19:49:25 0° 340° (NNW) 3,245 8.4 -11.7°
